This is the latest recevied weather packets stored in our database for station/object JQ2GLP-13. If no packets are shown the sender has not sent any weather packets the latest 10 day(s).
| Time | Temp. | Humidity | Pressure | Rain* | Wind** | Luminosity | Snow |
|---|---|---|---|---|---|---|---|
| 1777475233 | 16.11° C | 53% | 1011.2 hPa | 0 mm | - | - | - |
| 1777471633 | 16.11° C | 52% | 1011.1 hPa | 0 mm | - | - | - |
| 1777469835 | 16.67° C | 49% | 1010.7 hPa | 0 mm | - | - | - |
| 1777468035 | 16.67° C | 48% | 1010.6 hPa | 0 mm | - | - | - |
| 1777466235 | 16.67° C | 47% | 1010.2 hPa | 0 mm | - | - | - |
| 1777464434 | 17.22° C | 47% | 1009.9 hPa | 0 mm | - | - | - |
| 1777462634 | 17.22° C | 47% | 1009.9 hPa | 0 mm | - | - | - |
| 1777460834 | 17.22° C | 47% | 1009.7 hPa | 0 mm | - | - | - |
| 1777457233 | 17.78° C | 44% | 1008.4 hPa | 0 mm | - | - | - |
| 1777453521 | 18.89° C | 45% | 1007.8 hPa | 0 mm | - | - | - |
| 1777451722 | 19.44° C | 44% | 1007.4 hPa | 0 mm | - | - | - |
| 1777449921 | 20° C | 41% | 1007 hPa | 0 mm | - | - | - |
| 1777448121 | 20.56° C | 39% | 1006.8 hPa | 0 mm | - | - | - |
| 1777444521 | 21.11° C | 36% | 1006.3 hPa | 0 mm | - | - | - |
| 1777442721 | 21.11° C | 35% | 1006.1 hPa | 0 mm | - | - | - |
| 1777440921 | 21.67° C | 34% | 1006.4 hPa | 0 mm | - | - | - |
| 1777437323 | 22.22° C | 32% | 1006.4 hPa | 0 mm | - | - | - |
| 1777435523 | 22.78° C | 33% | 1006.4 hPa | 0 mm | - | - | - |
| 1777433722 | 22.78° C | 35% | 1006.6 hPa | 0 mm | - | - | - |
| 1777430123 | 22.22° C | 34% | 1006.6 hPa | 0 mm | - | - | - |
| 1777428323 | 22.78° C | 33% | 1006.9 hPa | 0 mm | - | - | - |
| 1777424722 | 22.78° C | 35% | 1007.1 hPa | 0 mm | - | - | - |
| 1777421123 | 21.67° C | 39% | 1006.7 hPa | 0 mm | - | - | - |
| 1777419322 | 20.56° C | 40% | 1006.6 hPa | 0 mm | - | - | - |
| 1777417522 | 20.56° C | 43% | 1006.4 hPa | 0 mm | - | - | - |
* Rain latest hour (hover to see other rain measurements)
** Current wind speed in m/s (hover to see current wind gust speed)